This demonstration page uses our WeatherBlox Daily Observations layout. Learn more.

Left ArrowRight Arrow

Hourly Observations for January 21, 2015

Temp ( °F °C ) Dew Point ( °F °C ) Humidity (%) Winds ( mph kmh ) Pressure ( in mb ) Visibility ( mi km ) Precip ( " mm )
12:15 am 00:15 Cloudy 36 2 36 2 100 100 W 5 7 30.06 1018 4 6.43736 N/A
12:35 am 00:35 Cloudy 36 2 36 2 100 100 WNW 5 7 30.06 1018 2.5 4.02335 N/A
12:55 am 00:55 Cloudy 36 2 N/A N/A WNW 6 9 30.06 1018 2 3.21868 N/A
1:15 am 01:15 Cloudy 36 2 N/A N/A Calm 30.06 1018 1.75 2.816345 N/A
1:35 am 01:35 Cloudy 34 1 N/A N/A W 3 6 30.06 1018 2 3.21868 N/A
1:55 am 01:55 Cloudy 34 1 N/A N/A WSW 3 6 30.06 1018 2 3.21868 N/A
2:15 am 02:15 Cloudy 34 1 N/A N/A W 7 11 30.06 1018 2.5 4.02335 N/A
2:35 am 02:35 Cloudy 34 1 N/A N/A W 6 9 30.06 1018 5 8.0467 N/A
2:55 am 02:55 Cloudy 34 1 N/A N/A W 7 11 30.06 1018 4 6.43736 N/A
4:16 am 04:16 Cloudy 34 1 N/A N/A WSW 10 17 30.06 1018 4 6.43736 N/A
4:35 am 04:35 Cloudy 34 1 34 1 100 100 WSW 9 15 30.06 1018 5 8.0467 N/A
4:55 am 04:55 Cloudy 34 1 34 1 100 100 W 8 13 30.06 1018 5 8.0467 N/A
5:16 am 05:16 Cloudy 34 1 34 1 100 100 W 7 11 30.06 1018 5 8.0467 N/A
5:35 am 05:35 Cloudy 34 1 34 1 100 100 W 8 13 30.06 1018 5 8.0467 N/A
5:55 am 05:55 Cloudy 34 1 34 1 100 100 W 8 13 30.06 1018 5 8.0467 N/A
6:16 am 06:16 Cloudy 34 1 34 1 100 100 W 7 11 30.06 1018 5 8.0467 N/A
6:35 am 06:35 Cloudy 34 1 34 1 100 100 W 8 13 30.06 1018 5 8.0467 N/A
6:55 am 06:55 Cloudy 34 1 34 1 100 100 WSW 12 19 30.06 1018 4 6.43736 N/A
7:16 am 07:16 Cloudy 34 1 34 1 100 100 WSW 8 13 30.09 1019 4 6.43736 N/A
7:35 am 07:35 Cloudy 34 1 N/A N/A SW 7 11 30.09 1019 3 4.82802 N/A
7:55 am 07:55 Mostly Cloudy 34 1 N/A N/A WSW 7 11 30.09 1019 4 6.43736 N/A
8:15 am 08:15 Mostly Cloudy 34 1 N/A N/A SW 6 9 30.09 1019 4 6.43736 N/A
8:35 am 08:35 Cloudy 34 1 N/A N/A SW 7 11 30.09 1019 2 3.21868 N/A
8:55 am 08:55 Cloudy 34 1 N/A N/A SW 12 19 30.09 1019 2 3.21868 N/A
9:15 am 09:15 Cloudy 34 1 N/A N/A SW 7 11 30.09 1019 2.5 4.02335 N/A
9:35 am 09:35 Mostly Cloudy 36 2 36 2 100 100 SSW 9 15 30.09 1019 3 4.82802 N/A
9:56 am 09:56 Sunny 37 3 36 2 93 93 SSW 8 13 30.09 1019 4 6.43736 N/A
10:15 am 10:15 Sunny 37 3 34 1 87 87 SSW 12 19 30.09 1019 4 6.43736 N/A
10:35 am 10:35 Partly Cloudy 37 3 34 1 87 87 SSW 12 19 30.09 1019 5 8.0467 N/A
10:55 am 10:55 Sunny 39 4 32 0 75 75 SW 14 22 30.06 1018 7 11.26538 N/A
11:15 am 11:15 Sunny 41 5 28 -2 61 61 WSW 14 22 30.06 1018 7 11.26538 N/A
11:36 am 11:36 Sunny 41 5 27 -3 57 57 SW 15 24 30.06 1018 10 16.0934 N/A
11:55 am 11:55 Sunny 41 5 27 -3 57 57 SW 13 20 30.06 1018 10 16.0934 N/A
12:15 pm 12:15 Partly Cloudy 43 6 27 -3 53 53 WSW 17 28 30.06 1018 10 16.0934 N/A
12:35 pm 12:35 Partly Cloudy 43 6 27 -3 53 53 W 16 26 30.06 1018 10 16.0934 N/A
12:55 pm 12:55 Partly Cloudy 45 7 25 -4 46 46 W 17 28 30.03 1017 10 16.0934 N/A
1:16 pm 13:16 Mostly Cloudy 43 6 25 -4 49 49 W 16 26 30.03 1017 10 16.0934 N/A
1:35 pm 13:35 Mostly Cloudy 43 6 25 -4 49 49 W 14 22 30.03 1017 10 16.0934 N/A
1:55 pm 13:55 Mostly Cloudy 41 5 25 -4 53 53 W 17 28 30.06 1018 10 16.0934 N/A
2:15 pm 14:15 Mostly Cloudy 41 5 23 -5 49 49 WNW 22 35 30.06 1018 10 16.0934 N/A
2:35 pm 14:35 Mostly Cloudy 41 5 23 -5 49 49 W 22 35 30.06 1018 10 16.0934 N/A
2:56 pm 14:56 Mostly Cloudy 39 4 23 -5 52 52 W 22 35 30.06 1018 10 16.0934 N/A
3:15 pm 15:15 Cloudy 39 4 23 -5 52 52 W 17 28 30.09 1019 10 16.0934 N/A
3:35 pm 15:35 Cloudy 39 4 23 -5 52 52 W 22 35 30.09 1019 10 16.0934 N/A
3:56 pm 15:56 Cloudy 37 3 21 -6 52 52 W 18 30 30.12 1020 10 16.0934 N/A
4:15 pm 16:15 Cloudy 37 3 23 -5 56 56 W 16 26 30.15 1021 10 16.0934 N/A
4:35 pm 16:35 Cloudy 37 3 23 -5 56 56 W 15 24 30.15 1021 10 16.0934 N/A
4:55 pm 16:55 Cloudy 37 3 21 -6 52 52 W 17 28 30.15 1021 10 16.0934 N/A
5:15 pm 17:15 Cloudy 36 2 21 -6 56 56 W 13 20 30.15 1021 10 16.0934 N/A
5:35 pm 17:35 Cloudy 36 2 21 -6 56 56 W 15 24 30.18 1022 10 16.0934 N/A
5:55 pm 17:55 Cloudy 36 2 23 -5 60 60 W 16 26 30.18 1022 10 16.0934 N/A
6:15 pm 18:15 Cloudy 36 2 23 -5 60 60 W 12 19 30.18 1022 10 16.0934 N/A
6:35 pm 18:35 Cloudy 36 2 23 -5 60 60 W 15 24 30.18 1022 10 16.0934 N/A
6:56 pm 18:56 Mostly Cloudy 36 2 25 -4 65 65 W 12 19 30.21 1023 10 16.0934 N/A
7:15 pm 19:15 Cloudy 36 2 25 -4 65 65 W 14 22 30.21 1023 10 16.0934 N/A
7:35 pm 19:35 Cloudy 34 1 30 -1 87 87 W 8 13 30.24 1024 4 6.43736 N/A
7:55 pm 19:55 Cloudy 34 1 28 -2 81 81 W 12 19 30.24 1024 10 16.0934 N/A
8:15 pm 20:15 Mostly Cloudy 34 1 28 -2 81 81 W 12 19 30.24 1024 7 11.26538 N/A
8:35 pm 20:35 Cloudy 34 1 28 -2 81 81 WNW 9 15 30.24 1024 10 16.0934 N/A
8:55 pm 20:55 Cloudy 34 1 28 -2 81 81 W 12 19 30.24 1024 10 16.0934 N/A
9:15 pm 21:15 Cloudy 34 1 28 -2 81 81 W 9 15 30.24 1024 10 16.0934 N/A
9:36 pm 21:36 Cloudy 34 1 30 -1 87 87 W 10 17 30.24 1024 10 16.0934 N/A
9:55 pm 21:55 Cloudy 34 1 30 -1 87 87 WNW 13 20 30.24 1024 10 16.0934 N/A
10:15 pm 22:15 Cloudy 34 1 30 -1 87 87 WNW 12 19 30.24 1024 10 16.0934 N/A
10:36 pm 22:36 Cloudy 34 1 32 0 93 93 WNW 12 19 30.24 1024 7 11.26538 N/A
10:55 pm 22:55 Cloudy 34 1 30 -1 87 87 WNW 9 15 30.24 1024 10 16.0934 N/A
11:15 pm 23:15 Cloudy 34 1 30 -1 87 87 WNW 9 15 30.24 1024 10 16.0934 N/A
11:35 pm 23:35 Cloudy 34 1 30 -1 87 87 WNW 8 13 30.24 1024 10 16.0934 N/A
11:55 pm 23:55 Cloudy 34 1 34 1 100 100 NNW 8 13 30.24 1024 7 11.26538 N/A

Powered by AerisWeather